Theta_e
323 323 322 323 323 323 324 324 326 326 326 325 326 325 324 324 323 323 322 322 321 322
323 323 323 323 324 324 324 324 325 325 325 325 326 325 324 323 323 323 323 323 323 323
323 324 323 324 324 324 324 325 324 323 324 324 325 325 324 323 323 323 324 324 324 322
323 324 324 324 324 324 325 324 324 324 324 324 324 324 323 323 324 324 323 324 323 322
323 323 322 323 324 324 324 324 325 325 325 325 325 324 324 323 324 323 322 321 321 322
321 321 323 324 323 323 323 324 325 326 325 324 325 325 325 325 323 324 322 322 321 323
321 322 323 324 323 324 324 324 325 325 326 326 326 326 326 325 324 325 323 324 323 323
322 323 323 324 324 325 324 325 325 325 327 326 325 323 325 324 323 325 324 324 324 323
322 323 323 323 324 324 324 325 326 324 323 322 320 302 308 320 323 324 323 323 322 322
323 323 323 323 322 321 321 322 322 322 321 320 318 301 302 309 324 323 323 323 322 323
324 322 323 322 321 319 319 319 318 318 318 318 315 301 302 306 323 323 324 324 323 321
324 322 322 321 319 319 319 319 317 318 317 318 318 301 300 314 325 324 323 323 322 320
325 324 322 321 319 319 321 320 318 316 316 309 318 300 301 316 323 321 320 319 317 306
325 324 323 321 321 320 322 320 317 316 316 318 315 309 302 307 322 320 319 318 316 311
Wind_Speed
8 5 4 5 5 4 3 4 4 4 4 4 4 4 4 2 3 4 4 6 5 3
7 8 7 7 5 4 4 3 5 5 5 4 4 4 4 2 3 4 4 5 5 4
7 6 6 6 6 5 4 5 5 5 4 5 4 4 4 2 2 4 3 3 5 4
6 6 6 5 5 5 5 5 5 5 5 4 4 4 3 2 4 4 4 3 4 4
6 6 5 5 5 5 6 4 5 5 4 4 4 4 4 4 3 4 4 3 4 3
6 6 5 5 5 5 5 5 4 4 4 4 4 4 3 3 5 4 4 4 4 2
6 5 5 5 5 5 5 5 4 4 4 4 3 2 2 3 4 3 3 3 3 4
5 5 5 5 5 4 5 4 4 4 4 4 3 1 3 4 4 4 4 5 4 4
5 5 5 5 5 4 4 4 4 5 6 5 3 4 0 5 4 4 5 5 5 5
6 6 5 5 5 4 5 5 5 6 6 4 3 5 2 5 4 4 4 4 4 3
6 6 6 5 5 5 4 5 5 4 4 4 2 5 5 7 5 5 5 3 3 4
7 7 6 6 6 4 4 4 3 4 5 3 3 5 5 7 5 5 5 4 4 4
7 7 7 6 6 3 3 4 4 5 4 2 3 2 4 5 4 4 4 5 5 8
7 7 6 5 3 5 5 5 5 5 4 4 4 3 5 8 4 3 4 4 4 3
Wind_Direction
129 132 128 134 137 134 149 147 155 161 164 168 172 171 161 164 181 179 194 198 194 190
121 124 131 127 119 134 123 142 149 152 146 155 160 165 153 171 184 187 195 202 195 200
124 123 123 123 135 134 138 135 140 142 144 150 144 142 149 167 181 194 209 203 197 202
124 124 121 132 134 144 136 145 151 146 147 154 148 147 154 194 205 202 209 214 206 204
122 125 130 137 144 142 140 151 149 141 149 157 134 148 179 196 188 178 183 183 149 160
138 140 142 145 142 145 147 151 138 145 161 143 149 176 218 196 187 182 180 169 167 168
158 152 147 147 145 153 153 141 150 166 145 138 150 183 195 174 178 181 167 192 123 149
151 139 139 139 147 149 146 159 167 158 122 122 122 76 133 135 141 134 109 124 134 133
143 149 146 139 145 145 129 140 138 123 127 121 93 348 351 143 133 123 127 139 136 136
158 147 145 132 128 133 131 132 122 114 118 119 111 357 86 151 135 131 123 132 145 146
153 147 129 126 136 114 116 128 118 119 121 124 90 355 144 125 114 110 117 126 113 102
156 142 139 144 136 125 135 131 120 144 131 133 106 22 171 118 112 108 103 88 97 109
148 147 158 150 143 129 143 126 131 124 114 106 102 60 178 121 107 103 96 82 80 83
145 152 151 140 124 133 131 125 121 118 108 91 52 67 105 119 111 122 111 99 98 93